Home > Weather > Lisbon > Past weeks

Flag for Portugal Past Weather in Lisbon, Portugal — Yesterday and Last 2 Weeks

Now
64 °F

Clear.


Feels Like: 64 °F
Forecast: 61 / 86 °F
Wind: 13 mph from Northwest

Location: Lisbon Portela Airport

Current Time: Jul 28, 2016 at 5:57:13 AM

Latest Report: Jul 28, 2016 at 5:30 AM


Visibility: 10 mi

Pressure: 29.98 "Hg

Humidity: 88%

Dew Point: 61 °F

Location of LisbonLocation

Past Weather in Lisbon — Graph

°F

Lisbon Temperature Yesterday

Maximum temperature yesterday: 82 °F (at 3:30 PM)
Minimum temperature yesterday: 63 °F (at 7:00 AM)
Average temperature yesterday: 71 °F

High & Low Weather Summary for the Past Weeks

 TemperatureHumidityPressure
High97 °F (Jul 15, 3:00 PM)94% (Jul 26, 10:30 PM)30.12 "Hg (Jul 26, 10:30 PM)
Low59 °F (Jul 13, 6:00 AM)15% (Jul 15, 2:30 PM)29.89 "Hg (Jul 17, 7:30 PM)
Average77 °F51%30.02 "Hg
* Reported Jul 13 4:00 AM — Jul 28 4:30 AM, Lisbon, Weather by CustomWeather, © 2016

Note: Actual official high and low records may vary slightly from our data, if they occured in-between our weather recording intervals... More about our weather records

Advertising

Lisbon Weather History for the Previous 24 Hours

Scroll right to see more
 ConditionsComfort  
Time TempWeatherWind HumidityBarometerVisibility
4:30 AM
Thu, Jul 28
63 °FClear.12 mph94%29.98 "Hg10 mi
4:00 AM64 °FClear.12 mph88%29.98 "Hg10 mi
3:30 AM64 °FClear.12 mph88%29.98 "Hg10 mi
3:00 AM64 °FClear.10 mph88%29.98 "Hg10 mi
2:30 AM64 °FClear.14 mph88%29.98 "Hg10 mi
2:00 AM64 °FClear.13 mph83%29.98 "Hg10 mi
1:30 AM64 °FClear.14 mph83%30.01 "Hg10 mi
1:00 AM64 °FClear.14 mph88%30.01 "Hg10 mi
12:30 AM66 °FClear.14 mph78%30.01 "Hg10 mi
12:00 AM66 °FClear.13 mph78%30.01 "Hg10 mi
11:30 PM
Wed, Jul 27
66 °FClear.15 mph78%30.01 "Hg10 mi
11:00 PM66 °FClear.14 mph78%30.01 "Hg10 mi
10:30 PM68 °FClear.13 mph73%30.01 "Hg10 mi
10:00 PM68 °FClear.14 mph73%30.01 "Hg10 mi
9:30 PM70 °FSunny.14 mph69%30.01 "Hg10 mi
9:00 PM72 °FSunny.14 mph69%30.01 "Hg10 mi
8:30 PM73 °FSunny.12 mph65%30.01 "Hg10 mi
8:00 PM75 °FSunny.14 mph61%29.98 "Hg10 mi
7:30 PM77 °FPassing clouds.10 mph57%29.98 "HgN/A
7:00 PM77 °FSunny.12 mph61%29.98 "Hg10 mi
6:30 PM79 °FPassing clouds.12 mph58%29.98 "HgN/A
6:00 PM81 °FPassing clouds.13 mph54%30.01 "HgN/A
5:30 PM81 °FPassing clouds.14 mph51%30.01 "HgN/A
5:00 PM81 °FPassing clouds.15 mph51%30.01 "HgN/A
4:30 PM81 °FPassing clouds.15 mph54%30.01 "HgN/A
4:00 PM82 °FPassing clouds.13 mph51%30.01 "HgN/A
3:30 PM82 °FPassing clouds.12 mph51%30.01 "HgN/A
3:00 PM81 °FPassing clouds.12 mph54%30.01 "HgN/A
2:30 PM81 °FPassing clouds.10 mph54%30.04 "HgN/A
2:00 PM79 °FPassing clouds.9 mph61%30.04 "HgN/A
1:30 PM79 °FPassing clouds.9 mph58%30.04 "HgN/A
1:00 PM79 °FPassing clouds.7 mph58%30.04 "HgN/A
12:30 PM77 °FPassing clouds.7 mph61%30.04 "HgN/A
12:00 PM73 °FPassing clouds.7 mph69%30.04 "HgN/A
11:30 AM72 °FPassing clouds.9 mph73%30.07 "HgN/A
11:00 AM68 °FPassing clouds.10 mph83%30.07 "HgN/A
10:30 AM70 °FScattered clouds.9 mph78%30.07 "HgN/A
10:00 AM68 °FScattered clouds.8 mph83%30.04 "HgN/A
9:30 AM66 °FBroken clouds.7 mph88%30.04 "HgN/A
9:00 AM64 °FBroken clouds.9 mph88%30.04 "HgN/A
8:30 AM64 °FBroken clouds.9 mph88%30.04 "HgN/A
8:00 AM64 °FBroken clouds.8 mph88%30.04 "HgN/A
7:30 AM64 °FPartly cloudy.9 mph88%30.04 "HgN/A
7:00 AM63 °FPassing clouds.10 mph94%30.04 "HgN/A
6:30 AM64 °FPassing clouds.7 mph88%30.01 "HgN/A
6:00 AM64 °FPassing clouds.7 mph88%30.01 "HgN/A
5:30 AM64 °FPassing clouds.7 mph88%30.04 "HgN/A
5:00 AM64 °FPassing clouds.9 mph88%30.04 "HgN/A
Weather by CustomWeather, © 2016

See weather overviewHow to use our weather pages